Angleton, TX

1:24 AM CST on February 06, 2016 (GMT -0600)
Brazoria County

Weather History for KLBX - November, 2012

Change the Weather History Date:

Friday, November 16, 2012

  Actual Average Record
Temperature  
Mean Temperature 55 °F -  
Max Temperature 68 °F 69 °F 87 °F (2011)
Min Temperature 42 °F 53 °F 33 °F (2008)
Degree Days  
Heating Degree Days 10    
Growing Degree Days 5 (Base 50)    
Moisture  
Dew Point 38 °F    
Average Humidity 58    
Maximum Humidity 89    
Minimum Humidity 24    
Precipitation  
Precipitation 0.00 in - - ()
Sea Level Pressure  
Sea Level Pressure 30.30 in    
Wind  
Wind Speed 6 mph (NE)    
Max Wind Speed 15 mph    
Max Gust Speed 22 mph    
Visibility 10 miles    
Events      
Averages and records for this station are not official NWS values.
T = Trace of Precipitation, MM = Missing Value Source: NWS Daily Summary

Daily Weather History Graph

Daily Weather History Graph

Search for Another Location

Airport or City:

Trip Planner

Search our weather history database for the weather conditions in past years. The results will help you decide how hot, cold, wet, or windy it might be!

Date:

Astronomy

Nov. 16, 2012 Rise Set
Actual Time 6:46 AM CST 5:26 PM CST
Civil Twilight 6:21 AM CST 5:51 PM CST
Nautical Twilight 5:52 AM CST 6:20 PM CST
Astronomical Twilight 5:24 AM CST 6:48 PM CST
Moon 9:38 AM CST (11/16) 8:30 PM CST (11/16)
Length of Visible Light 11h 30m
Length of Day
10h 40m
Waxing Crescent, 12% of the Moon is Illuminated
Nov 16
Waxing Crescent
Nov 20
First Quarter
Nov 28
Full
Dec 6
Last Quarter
Dec 13
New

Hourly Weather History & Observations

Time (CST) Temp. Windchill Dew Point Humidity Pressure Visibility Wind Dir Wind Speed Gust Speed Precip Events Conditions
12:53 AM 54.0 °F - 48.9 °F 83% 30.28 in 10.0 mi NNE 4.6 mph - N/A   Overcast
1:53 AM 55.0 °F - 46.0 °F 72% 30.29 in 10.0 mi North 9.2 mph - N/A   Overcast
2:53 AM 54.0 °F - 43.0 °F 66% 30.27 in 10.0 mi NE 4.6 mph - N/A   Overcast
3:53 AM 51.1 °F - 39.9 °F 66% 30.27 in 10.0 mi NNE 6.9 mph - N/A   Clear
4:53 AM 50.0 °F - 41.0 °F 71% 30.27 in 9.0 mi NNE 5.8 mph - N/A   Overcast
6:53 AM 51.1 °F - 39.9 °F 66% 30.30 in 10.0 mi NNE 6.9 mph - N/A   Overcast
7:53 AM 51.1 °F - 41.0 °F 68% 30.32 in 10.0 mi NNE 8.1 mph - N/A   Clear
8:53 AM 55.0 °F - 42.1 °F 62% 30.33 in 10.0 mi NNE 9.2 mph - N/A   Clear
9:53 AM 60.1 °F - 39.9 °F 47% 30.35 in 10.0 mi NNE 9.2 mph - N/A   Clear
10:53 AM 63.0 °F - 36.0 °F 37% 30.34 in 10.0 mi North 15.0 mph 20.7 mph N/A   Clear
11:53 AM 64.0 °F - 34.0 °F 33% 30.32 in 10.0 mi NE 9.2 mph 21.9 mph N/A   Clear
12:53 PM 66.9 °F - 28.9 °F 24% 30.29 in 10.0 mi ENE 12.7 mph - N/A   Clear
1:53 PM 66.9 °F - 30.9 °F 26% 30.27 in 10.0 mi NE 8.1 mph 18.4 mph N/A   Clear
2:53 PM 68.0 °F - 32.0 °F 26% 30.25 in 10.0 mi NE 5.8 mph 17.3 mph N/A   Clear
3:53 PM 66.9 °F - 34.0 °F 30% 30.26 in 10.0 mi East 9.2 mph - N/A   Clear
4:53 PM 64.0 °F - 36.0 °F 35% 30.26 in 10.0 mi ENE 5.8 mph - N/A   Clear
5:53 PM 59.0 °F - 37.0 °F 44% 30.27 in 10.0 mi ESE 3.5 mph - N/A   Clear
6:53 PM 48.9 °F - 37.9 °F 66% 30.30 in 10.0 mi Calm Calm - N/A   Clear
7:53 PM 46.9 °F - 39.0 °F 74% 30.30 in 10.0 mi Calm Calm - N/A   Clear
8:53 PM 45.0 °F - 39.9 °F 82% 30.32 in 10.0 mi Calm Calm - N/A   Clear
9:53 PM 42.1 °F 40.2 °F 37.9 °F 85% 30.32 in 10.0 mi North 3.5 mph - N/A   Clear
10:53 PM 42.1 °F 39.2 °F 39.0 °F 89% 30.33 in 10.0 mi North 4.6 mph - N/A   Clear
11:53 PM 42.1 °F - 39.0 °F 89% 30.34 in 10.0 mi Calm Calm - N/A   Clear